Orbital Elements at Epoch 2459200.5 (2020-Dec-17.0) TDB
Reference: JPL 25 (heliocentric ecliptic J2000)
Element | Value | Uncertainty (1-sigma) | Units |
e | .2036170547585204 | 3.2289e-08 | |
a | 2.378111918394147 | 6.4415e-09 | au |
q | 1.893887773684596 | 7.6248e-08 | au |
i | 3.846204039837692 | 3.7558e-06 | deg |
node | 74.64115342111185 | 4.7146e-05 | deg |
peri | 306.9680820182784 | 4.8008e-05 | deg |
M | 29.61112401475419 | 7.7528e-06 | deg |
tp | 2459090.320891633003 (2020-Aug-28.82089163) | 2.8803e-05 | TDB |
period | 1339.51277879068 3.67 | 5.4424e-06 1.49e-08 | d yr |
n | .2687544349707586 | 1.092e-09 | deg/d |
Q | 2.862336063103698 | 7.7531e-09 | au |
|
| | Orbit Determination Parameters
Additional Information
|